Mekoryuk, AK

1:30 AM AKDT on August 31, 2016 (GMT -0800)
Mekoryuk

Weather History for PAMY - October, 2012

Change the Weather History Date:

Monday, October 29, 2012

  Actual Average Record
Temperature  
Mean Temperature 30 °F -  
Max Temperature 33 °F 33 °F 42 °F (2002)
Min Temperature 28 °F 25 °F 0 °F (1985)
Degree Days  
Heating Degree Days 34    
Moisture  
Dew Point 25 °F    
Average Humidity 79    
Maximum Humidity 93    
Minimum Humidity 55    
Precipitation  
Precipitation 0.00 in - - ()
Sea Level Pressure  
Sea Level Pressure 30.34 in    
Wind  
Wind Speed 16 mph (NNE)    
Max Wind Speed 29 mph    
Max Gust Speed 36 mph    
Visibility 7 miles    
Events      
Averages and records for this station are not official NWS values.
T = Trace of Precipitation, MM = Missing Value Source: NWS Daily Summary

Daily Weather History Graph

Daily Weather History Graph

Search for Another Location

Airport or City:

Trip Planner

Search our weather history database for the weather conditions in past years. The results will help you decide how hot, cold, wet, or windy it might be!

Date:

Astronomy

Oct. 29, 2012 Rise Set
Actual Time 10:23 AM AKDT 7:13 PM AKDT
Civil Twilight 9:37 AM AKDT 7:58 PM AKDT
Nautical Twilight 8:48 AM AKDT 8:48 PM AKDT
Astronomical Twilight 7:59 AM AKDT 9:36 PM AKDT
Moon 6:57 PM AKDT (10/29) 10:37 AM AKDT (10/29)
Length of Visible Light 10h 20m
Length of Day
8h 50m
Full, 100% of the Moon is Illuminated
Oct 29
Full
Nov 6
Last Quarter
Nov 13
New
Nov 20
First Quarter
Nov 28
Full

Hourly Weather History & Observations

Time (AKDT) Temp. Windchill Dew Point Humidity Pressure Visibility Wind Dir Wind Speed Gust Speed Precip Events Conditions
12:16 AM 30.2 °F 24.3 °F 28.4 °F 93% 30.20 in 0.8 mi NNW 5.8 mph - N/A   Overcast
12:36 AM 30.2 °F 21.3 °F 28.4 °F 93% 30.20 in 1.0 mi NW 10.4 mph - N/A   Overcast
12:56 AM 30.2 °F 21.9 °F 28.4 °F 93% 30.20 in 1.2 mi North 9.2 mph - N/A   Overcast
1:16 AM 30.2 °F 22.6 °F 28.4 °F 93% 30.20 in 4.0 mi NNW 8.1 mph - N/A   Overcast
1:36 AM 30.2 °F 22.6 °F 28.4 °F 93% 30.20 in 1.2 mi North 8.1 mph - N/A   Overcast
1:56 AM 30.2 °F 22.6 °F 28.4 °F 93% 30.21 in 4.0 mi North 8.1 mph - N/A   Overcast
2:16 AM 30.2 °F 21.9 °F 28.4 °F 93% 30.21 in 3.0 mi NNW 9.2 mph - N/A   Overcast
2:36 AM 30.2 °F 21.9 °F 28.4 °F 93% 30.21 in 3.0 mi NNW 9.2 mph - N/A   Overcast
2:56 AM 30.2 °F 21.9 °F 28.4 °F 93% 30.22 in 10.0 mi North 9.2 mph - N/A   Overcast
3:16 AM 30.2 °F 21.9 °F 28.4 °F 93% 30.22 in 4.0 mi North 9.2 mph - N/A   Overcast
3:36 AM 30.2 °F 19.8 °F 28.4 °F 93% 30.22 in 1.8 mi North 13.8 mph - N/A   Overcast
3:56 AM 30.2 °F 20.8 °F 28.4 °F 93% 30.22 in 5.0 mi North 11.5 mph - N/A   Overcast
4:16 AM 30.2 °F 19.8 °F 28.4 °F 93% 30.23 in 5.0 mi North 13.8 mph - N/A   Overcast
4:36 AM 30.2 °F 20.2 °F 28.4 °F 93% 30.23 in 4.0 mi North 12.7 mph - N/A   Overcast
4:56 AM 30.2 °F 20.8 °F 28.4 °F 93% 30.23 in 1.8 mi North 11.5 mph - N/A   Overcast
5:16 AM 30.2 °F 18.5 °F 28.4 °F 93% 30.23 in 4.0 mi North 17.3 mph - N/A   Overcast
5:36 AM 30.2 °F 19.8 °F 28.4 °F 93% 30.23 in 3.0 mi North 13.8 mph 18.4 mph N/A   Overcast
5:56 AM 30.2 °F 20.2 °F 28.4 °F 93% 30.24 in 5.0 mi North 12.7 mph 19.6 mph N/A   Overcast
6:16 AM 30.2 °F 21.3 °F 28.4 °F 93% 30.24 in 7.0 mi North 10.4 mph - N/A   Overcast
6:36 AM 30.2 °F 19.8 °F 28.4 °F 93% 30.24 in 3.0 mi North 13.8 mph - N/A   Overcast
6:56 AM 30.2 °F 19.3 °F 28.4 °F 93% 30.24 in 8.0 mi North 15.0 mph 21.9 mph N/A   Overcast
7:16 AM 32.0 °F 22.1 °F 28.4 °F 87% 30.24 in 7.0 mi North 13.8 mph - N/A   Overcast
7:36 AM 33.8 °F 23.9 °F 30.2 °F 87% 30.24 in 3.0 mi North 15.0 mph - N/A   Overcast
7:56 AM 32.0 °F 20.5 °F 30.2 °F 93% 30.25 in 7.0 mi NNE 18.4 mph 24.2 mph N/A   Overcast
8:16 AM 32.0 °F 19.8 °F 30.2 °F 93% 30.26 in 5.0 mi NNE 20.7 mph - N/A   Overcast
8:36 AM 32.0 °F 20.8 °F 28.4 °F 87% 30.26 in 10.0 mi NNE 17.3 mph - N/A   Overcast
8:56 AM 32.0 °F 21.6 °F 28.4 °F 87% 30.26 in 8.0 mi NNE 15.0 mph - N/A   Overcast
9:36 AM 32.0 °F 21.2 °F 30.2 °F 93% 30.28 in 7.0 mi NNE 16.1 mph - N/A   Overcast
9:56 AM 33.8 °F 22.8 °F 30.2 °F 87% 30.28 in 8.0 mi NNE 18.4 mph 23.0 mph N/A   Overcast
10:16 AM 33.8 °F 22.8 °F 30.2 °F 87% 30.29 in 7.0 mi North 18.4 mph 26.5 mph N/A   Overcast
10:36 AM 33.8 °F 22.8 °F 28.4 °F 81% 30.29 in 7.0 mi North 18.4 mph 23.0 mph N/A   Overcast
10:56 AM 33.8 °F 22.5 °F 28.4 °F 81% 30.30 in 5.0 mi North 19.6 mph 27.6 mph N/A   Overcast
11:16 AM 33.8 °F 22.8 °F 28.4 °F 81% 30.31 in 7.0 mi North 18.4 mph 25.3 mph N/A   Overcast
11:36 AM 33.8 °F 22.2 °F 28.4 °F 81% 30.31 in 8.0 mi NNE 20.7 mph 31.1 mph N/A   Overcast
11:56 AM 33.8 °F 21.0 °F 28.4 °F 81% 30.32 in 7.0 mi NNE 25.3 mph 29.9 mph N/A   Overcast
12:16 PM 33.8 °F 21.0 °F 28.4 °F 81% 30.33 in 6.0 mi NNE 25.3 mph 33.4 mph N/A   Overcast
12:36 PM 33.8 °F 20.8 °F 28.4 °F 81% 30.34 in 4.0 mi NNE 26.5 mph 29.9 mph N/A   Overcast
12:56 PM 33.8 °F 21.3 °F 26.6 °F 75% 30.35 in 7.0 mi NNE 24.2 mph 33.4 mph N/A   Overcast
1:16 PM 33.8 °F 20.3 °F 26.6 °F 75% 30.35 in 7.0 mi NNE 28.8 mph 35.7 mph N/A   Overcast
1:36 PM 33.8 °F 20.8 °F 26.6 °F 75% 30.36 in 7.0 mi NNE 26.5 mph 33.4 mph N/A   Overcast
1:56 PM 33.8 °F 20.5 °F 26.6 °F 75% 30.36 in 7.0 mi NNE 27.6 mph 34.5 mph N/A   Overcast
2:16 PM 33.8 °F 20.5 °F 26.6 °F 75% 30.37 in 6.0 mi NNE 27.6 mph 33.4 mph N/A   Overcast
2:36 PM 32.0 °F 18.4 °F 24.8 °F 75% 30.38 in 7.0 mi NNE 26.5 mph 33.4 mph N/A   Overcast
2:56 PM 32.0 °F 18.6 °F 24.8 °F 75% 30.39 in 7.0 mi NNE 25.3 mph 33.4 mph N/A   Overcast
3:16 PM 32.0 °F 18.9 °F 24.8 °F 75% 30.39 in 7.0 mi NNE 24.2 mph 32.2 mph N/A   Overcast
3:36 PM 32.0 °F 19.2 °F 23.0 °F 69% 30.40 in 7.0 mi NNE 23.0 mph 29.9 mph N/A   Overcast
3:56 PM 32.0 °F 18.1 °F 23.0 °F 69% 30.40 in 8.0 mi NNE 27.6 mph 31.1 mph N/A   Overcast
4:16 PM 32.0 °F 19.2 °F 23.0 °F 69% 30.40 in 8.0 mi NNE 23.0 mph 32.2 mph N/A   Overcast
4:36 PM 32.0 °F 18.4 °F 21.2 °F 64% 30.41 in 8.0 mi NNE 26.5 mph 33.4 mph N/A   Overcast
4:56 PM 30.2 °F 16.2 °F 23.0 °F 75% 30.41 in 8.0 mi NNE 25.3 mph 33.4 mph N/A   Overcast
5:16 PM 30.2 °F 15.7 °F 19.4 °F 64% 30.41 in 9.0 mi NNE 27.6 mph 32.2 mph N/A   Overcast
5:36 PM 30.2 °F 16.2 °F 19.4 °F 64% 30.42 in 10.0 mi NNE 25.3 mph 29.9 mph N/A   Overcast
6:16 PM 30.2 °F 17.1 °F 17.6 °F 60% 30.43 in 9.0 mi North 21.9 mph 34.5 mph N/A   Overcast
6:36 PM 30.2 °F 16.8 °F 19.4 °F 64% 30.43 in 9.0 mi NNE 23.0 mph 32.2 mph N/A   Overcast
6:56 PM 30.2 °F 16.8 °F 19.4 °F 64% 30.44 in 8.0 mi NNE 23.0 mph - N/A   Overcast
7:16 PM 30.2 °F 16.2 °F 21.2 °F 69% 30.44 in 8.0 mi NNE 25.3 mph 34.5 mph N/A   Overcast
7:36 PM 30.2 °F 17.4 °F 17.6 °F 60% 30.46 in 9.0 mi NNE 20.7 mph 33.4 mph N/A   Overcast
7:56 PM 30.2 °F 16.2 °F 15.8 °F 55% 30.46 in 10.0 mi NNE 25.3 mph 32.2 mph N/A   Overcast
8:16 PM 28.4 °F 14.4 °F 17.6 °F 64% 30.46 in 10.0 mi NNE 23.0 mph 29.9 mph N/A   Overcast
8:36 PM 28.4 °F 14.7 °F 21.2 °F 74% 30.47 in 3.0 mi NNE 21.9 mph 32.2 mph N/A   Mostly Cloudy
8:56 PM 28.4 °F 13.8 °F 21.2 °F 74% 30.47 in 5.0 mi NNE 25.3 mph 32.2 mph N/A   Mostly Cloudy
9:16 PM 28.4 °F 14.7 °F 17.6 °F 64% 30.48 in 10.0 mi NNE 21.9 mph 32.2 mph N/A   Overcast
9:36 PM 28.4 °F 14.1 °F 19.4 °F 69% 30.48 in 10.0 mi NE 24.2 mph 33.4 mph N/A   Mostly Cloudy
9:56 PM 28.4 °F 13.5 °F 19.4 °F 69% 30.49 in 10.0 mi NNE 26.5 mph 32.2 mph N/A   Scattered Clouds
10:16 PM 28.4 °F 14.1 °F 17.6 °F 64% 30.49 in 10.0 mi NNE 24.2 mph 31.1 mph N/A   Overcast
10:36 PM 28.4 °F 14.1 °F 15.8 °F 59% 30.50 in 10.0 mi NNE 24.2 mph 32.2 mph N/A   Overcast
10:56 PM 28.4 °F 13.5 °F 15.8 °F 59% 30.50 in 10.0 mi NNE 26.5 mph 32.2 mph N/A   Mostly Cloudy
11:16 PM 28.4 °F 14.1 °F 15.8 °F 59% 30.51 in 10.0 mi NNE 24.2 mph 31.1 mph N/A   Scattered Clouds
11:36 PM 28.4 °F 13.8 °F 15.8 °F 59% 30.51 in 10.0 mi NNE 25.3 mph 29.9 mph N/A   Partly Cloudy
11:56 PM 28.4 °F 14.7 °F 17.6 °F 64% 30.51 in 10.0 mi NNE 21.9 mph 28.8 mph N/A   Scattered Clouds